TimeCST,TemperatureF,Dew PointF,Humidity,Sea Level PressureIn,VisibilityMPH,Wind Direction,Wind SpeedMPH,Gust SpeedMPH,PrecipitationIn,Events,Conditions,WindDirDegrees,DateUTC
12:33 AM,21.2,15.8,80,29.83,10.0,South,15.0,19.6,N/A,,Clear,180,2013-01-07 06:33:00
12:54 AM,21.2,15.8,80,29.81,10.0,South,16.1,-,N/A,,Clear,190,2013-01-07 06:54:00
1:13 AM,21.2,17.6,86,29.80,10.0,South,17.3,-,N/A,,Clear,190,2013-01-07 07:13:00
1:34 AM,21.2,17.6,86,29.80,10.0,South,16.1,-,N/A,,Clear,190,2013-01-07 07:34:00
1:53 AM,21.2,17.6,86,29.80,10.0,SSW,9.2,-,N/A,,Clear,200,2013-01-07 07:53:00
2:13 AM,21.2,17.6,86,29.80,10.0,South,11.5,-,N/A,,Clear,190,2013-01-07 08:13:00
2:34 AM,21.2,17.6,86,29.79,10.0,South,12.7,-,N/A,,Clear,180,2013-01-07 08:34:00
2:53 AM,21.2,17.6,86,29.79,10.0,South,16.1,-,N/A,,Clear,190,2013-01-07 08:53:00
3:13 AM,23.0,17.6,80,29.79,10.0,South,17.3,-,N/A,,Clear,190,2013-01-07 09:13:00
3:34 AM,21.2,17.6,86,29.79,10.0,SW,10.4,-,N/A,,Clear,230,2013-01-07 09:34:00
3:53 AM,21.2,17.6,86,29.79,10.0,SSW,12.7,-,N/A,,Clear,210,2013-01-07 09:53:00
4:13 AM,21.2,17.6,86,29.79,10.0,SW,10.4,-,N/A,,Clear,220,2013-01-07 10:13:00
4:53 AM,21.2,17.6,86,29.79,10.0,SSW,10.4,-,N/A,,Clear,210,2013-01-07 10:53:00
5:13 AM,21.2,17.6,86,29.80,10.0,SW,11.5,-,N/A,,Clear,220,2013-01-07 11:13:00
5:34 AM,19.4,17.6,93,29.81,10.0,SSW,8.1,-,N/A,,Clear,200,2013-01-07 11:34:00
5:53 AM,19.4,17.6,93,29.81,10.0,South,8.1,-,N/A,,Clear,180,2013-01-07 11:53:00
6:13 AM,19.4,17.6,93,29.81,10.0,SSW,9.2,-,N/A,,Clear,200,2013-01-07 12:13:00
6:34 AM,21.2,17.6,86,29.81,10.0,SSW,10.4,-,N/A,,Clear,200,2013-01-07 12:34:00
6:53 AM,21.2,17.6,86,29.81,10.0,SW,9.2,-,N/A,,Clear,220,2013-01-07 12:53:00
7:13 AM,21.2,19.4,93,29.80,10.0,SSW,6.9,-,N/A,,Clear,200,2013-01-07 13:13:00
7:34 AM,24.8,21.2,86,29.81,10.0,WSW,11.5,-,N/A,,Clear,240,2013-01-07 13:34:00
7:53 AM,24.8,21.2,86,29.82,10.0,WSW,11.5,-,N/A,,Clear,250,2013-01-07 13:53:00
8:13 AM,24.8,19.4,80,29.83,10.0,WSW,11.5,-,N/A,,Clear,240,2013-01-07 14:13:00
8:33 AM,23.0,19.4,86,29.84,10.0,WSW,11.5,-,N/A,,Clear,240,2013-01-07 14:33:00
8:53 AM,21.2,17.6,86,29.83,10.0,SW,10.4,-,N/A,,Clear,230,2013-01-07 14:53:00
9:13 AM,24.8,19.4,80,29.84,10.0,WSW,9.2,-,N/A,,Clear,240,2013-01-07 15:13:00
9:33 AM,24.8,19.4,80,29.85,10.0,WSW,11.5,-,N/A,,Clear,240,2013-01-07 15:33:00
9:53 AM,28.4,21.2,74,29.85,10.0,WSW,15.0,-,N/A,,Clear,250,2013-01-07 15:53:00
10:14 AM,28.4,21.2,74,29.86,10.0,WSW,13.8,-,N/A,,Clear,250,2013-01-07 16:14:00
10:33 AM,28.4,21.2,74,29.87,10.0,WSW,12.7,-,N/A,,Clear,240,2013-01-07 16:33:00
10:53 AM,30.2,21.2,69,29.87,10.0,WSW,12.7,-,N/A,,Clear,250,2013-01-07 16:53:00
11:33 AM,30.2,21.2,69,29.86,10.0,West,12.7,-,N/A,,Clear,260,2013-01-07 17:33:00
11:53 AM,32.0,23.0,69,29.85,10.0,WSW,8.1,-,N/A,,Clear,250,2013-01-07 17:53:00
12:14 PM,33.8,23.0,65,29.85,10.0,West,11.5,-,N/A,,Clear,260,2013-01-07 18:14:00
1:14 PM,33.8,24.8,70,29.84,10.0,WSW,11.5,-,N/A,,Unknown,240,2013-01-07 19:14:00
1:53 PM,35.6,24.8,65,29.84,10.0,WSW,12.7,-,N/A,,Clear,240,2013-01-07 19:53:00
2:14 PM,33.8,26.6,75,29.84,10.0,SW,12.7,-,N/A,,Clear,230,2013-01-07 20:14:00
2:33 PM,33.8,24.8,70,29.85,10.0,SW,13.8,-,N/A,,Clear,230,2013-01-07 20:33:00
2:53 PM,33.8,24.8,70,29.86,10.0,SW,15.0,-,N/A,,Clear,230,2013-01-07 20:53:00
3:13 PM,33.8,24.8,70,29.87,10.0,WSW,13.8,-,N/A,,Clear,240,2013-01-07 21:13:00
3:33 PM,32.0,24.8,75,29.87,10.0,WSW,12.7,-,N/A,,Clear,240,2013-01-07 21:33:00
3:54 PM,32.0,24.8,75,29.87,10.0,WSW,13.8,-,N/A,,Clear,240,2013-01-07 21:54:00
4:13 PM,30.2,24.8,80,29.88,10.0,WSW,12.7,-,N/A,,Clear,240,2013-01-07 22:13:00
4:53 PM,30.2,23.0,75,29.89,10.0,West,10.4,-,N/A,,Clear,260,2013-01-07 22:53:00
5:13 PM,28.4,23.0,80,29.89,10.0,WSW,9.2,-,N/A,,Clear,250,2013-01-07 23:13:00
5:33 PM,26.6,21.2,80,29.90,10.0,WSW,9.2,-,N/A,,Clear,240,2013-01-07 23:33:00
5:53 PM,24.8,21.2,86,29.89,10.0,WSW,6.9,-,N/A,,Clear,240,2013-01-07 23:53:00
6:13 PM,24.8,19.4,80,29.90,10.0,WSW,9.2,-,N/A,,Clear,240,2013-01-08 00:13:00
6:33 PM,24.8,21.2,86,29.90,10.0,West,8.1,-,N/A,,Clear,260,2013-01-08 00:33:00
6:53 PM,24.8,21.2,86,29.90,10.0,West,8.1,-,N/A,,Clear,260,2013-01-08 00:53:00
7:13 PM,24.8,21.2,86,29.90,10.0,WSW,9.2,-,N/A,,Clear,250,2013-01-08 01:13:00
7:34 PM,24.8,21.2,86,29.90,10.0,WSW,6.9,-,N/A,,Clear,240,2013-01-08 01:34:00
7:53 PM,23.0,21.2,93,29.90,10.0,SW,3.5,-,N/A,,Clear,220,2013-01-08 01:53:00
8:13 PM,24.8,21.2,86,29.90,10.0,WSW,3.5,-,N/A,,Clear,240,2013-01-08 02:13:00
8:34 PM,23.0,19.4,86,29.91,10.0,SW,4.6,-,N/A,,Clear,220,2013-01-08 02:34:00
8:53 PM,24.8,21.2,86,29.91,10.0,WSW,4.6,-,N/A,,Clear,240,2013-01-08 02:53:00
9:13 PM,24.8,21.2,86,29.91,10.0,WSW,4.6,-,N/A,,Clear,250,2013-01-08 03:13:00
9:34 PM,24.8,21.2,86,29.92,10.0,West,5.8,-,N/A,,Clear,270,2013-01-08 03:34:00
9:53 PM,23.0,21.2,93,29.92,10.0,WSW,4.6,-,N/A,,Clear,250,2013-01-08 03:53:00
10:13 PM,19.4,17.6,93,29.93,10.0,SW,6.9,-,N/A,,Clear,230,2013-01-08 04:13:00
10:34 PM,19.4,17.6,93,29.92,10.0,SW,6.9,-,N/A,,Clear,220,2013-01-08 04:34:00
10:53 PM,19.4,17.6,93,29.93,10.0,SW,5.8,-,N/A,,Clear,230,2013-01-08 04:53:00
11:13 PM,21.2,19.4,93,29.93,10.0,WSW,5.8,-,N/A,,Clear,240,2013-01-08 05:13:00
11:33 PM,19.4,17.6,93,29.93,10.0,WSW,5.8,-,N/A,,Clear,240,2013-01-08 05:33:00
11:53 PM,19.4,19.4,100,29.92,10.0,SW,4.6,-,N/A,,Clear,230,2013-01-08 05:53:00